Location: Heiligenberg
(48.5381°N, 7.3897°E)
Time: 20:03:13
(UTC+00:00)

ERBS - Pass Details

Date: 26 May 2022
Orbit: 358 x 376 km, 57.0° (Epoch: 02 July)

Event Time Altitude Azimuth Distance (km) Brightness Sun altitude
Exits shadow 00:30:59 28° 104° (ESE) 722 3.4 -18.9°
Drops below altitude 10° 00:33:02 10° 69° (ENE) 1,373 5.3 -18.8°
Enters shadow 01:28:09 -70° 237° (WSW) 12,378 9.6 -15.3°
Maximum altitude 02:05:32 35° 334° (NNW) 624 3.4 -11.9°
